TimeAKDT,TemperatureF,Dew PointF,Humidity,Sea Level PressureIn,VisibilityMPH,Wind Direction,Wind SpeedMPH,Gust SpeedMPH,PrecipitationIn,Events,Conditions,WindDirDegrees,DateUTC
12:54 AM,34.0,12.0,40,30.06,10.0,WNW,13.8,27.6,N/A,,Scattered Clouds,290,2013-04-19 08:54:00
1:54 AM,33.1,10.9,40,30.09,9.0,WNW,12.7,20.7,N/A,,Scattered Clouds,300,2013-04-19 09:54:00
2:54 AM,33.1,10.0,38,30.12,8.0,NW,11.5,23.0,N/A,,Clear,310,2013-04-19 10:54:00
3:44 AM,32.0,12.2,44,30.12,5.0,WNW,12.7,20.7,N/A,,Haze,300,2013-04-19 11:44:00
3:54 AM,30.9,12.9,47,30.14,7.0,WNW,12.7,-,N/A,,Partly Cloudy,290,2013-04-19 11:54:00
4:54 AM,30.0,12.9,49,30.15,8.0,WNW,11.5,20.7,N/A,,Partly Cloudy,300,2013-04-19 12:54:00
5:54 AM,30.0,12.0,47,30.16,6.0,WNW,15.0,24.2,N/A,,Haze,300,2013-04-19 13:54:00
6:54 AM,32.0,12.0,44,30.17,3.0,West,17.3,-,N/A,,Haze,280,2013-04-19 14:54:00
7:21 AM,32.0,10.4,41,30.17,4.0,WNW,10.4,28.8,N/A,,Haze,300,2013-04-19 15:21:00
7:54 AM,33.1,8.1,35,30.18,6.0,WNW,13.8,24.2,N/A,,Haze,300,2013-04-19 15:54:00
8:54 AM,35.1,9.0,34,30.19,10.0,WNW,18.4,26.5,N/A,,Clear,290,2013-04-19 16:54:00
9:54 AM,36.0,10.0,34,30.19,10.0,WNW,19.6,28.8,N/A,,Clear,290,2013-04-19 17:54:00
10:54 AM,37.9,10.9,33,30.20,10.0,WNW,21.9,28.8,N/A,,Clear,290,2013-04-19 18:54:00
11:54 AM,39.0,10.0,30,30.22,10.0,WNW,12.7,23.0,N/A,,Clear,290,2013-04-19 19:54:00
12:54 PM,41.0,10.9,29,30.22,10.0,West,13.8,28.8,N/A,,Clear,280,2013-04-19 20:54:00
1:54 PM,41.0,12.0,31,30.23,10.0,WNW,20.7,26.5,N/A,,Clear,290,2013-04-19 21:54:00
2:54 PM,42.1,12.9,31,30.24,10.0,West,20.7,-,N/A,,Clear,280,2013-04-19 22:54:00
3:54 PM,42.1,12.9,31,30.25,10.0,West,18.4,26.5,N/A,,Clear,280,2013-04-19 23:54:00
4:54 PM,42.1,10.9,28,30.27,10.0,WNW,20.7,26.5,N/A,,Clear,290,2013-04-20 00:54:00
5:54 PM,41.0,12.9,32,30.28,10.0,West,20.7,-,N/A,,Clear,280,2013-04-20 01:54:00
6:54 PM,39.0,12.0,33,30.30,10.0,WNW,15.0,-,N/A,,Clear,290,2013-04-20 02:54:00
7:54 PM,37.0,10.9,34,30.32,10.0,NW,12.7,21.9,N/A,,Clear,310,2013-04-20 03:54:00
8:54 PM,35.1,14.0,42,30.35,10.0,NW,5.8,-,N/A,,Clear,320,2013-04-20 04:54:00
9:54 PM,34.0,12.0,40,30.38,10.0,NW,10.4,-,N/A,,Clear,320,2013-04-20 05:54:00
10:54 PM,34.0,12.0,40,30.40,10.0,WNW,10.4,-,N/A,,Partly Cloudy,300,2013-04-20 06:54:00
11:54 PM,33.1,10.9,40,30.42,10.0,NW,10.4,-,N/A,,Clear,320,2013-04-20 07:54:00